Weather History for KPTK - September, 2013

Change the Weather History Date:

Sunday, September 8, 2013

  Actual Average Record
Temperature  
Mean Temperature 64 °F -  
Max Temperature 72 °F 74 °F 91 °F (2002)
Min Temperature 55 °F 54 °F 50 °F (1998)
Degree Days  
Heating Degree Days 1    
Growing Degree Days 14 (Base 50)    
Moisture  
Dew Point 57 °F    
Average Humidity 71    
Maximum Humidity 88    
Minimum Humidity 45    
Precipitation  
Precipitation 0.00 in - - ()
Sea Level Pressure  
Sea Level Pressure 30.03 in    
Wind  
Wind Speed 9 mph (NNE)    
Max Wind Speed 15 mph    
Max Gust Speed 21 mph    
Visibility 9 miles    
Events Rain    
Averages and records for this station are not official NWS values.
T = Trace of Precipitation, MM = Missing Value Source: NWS Daily Summary

Daily Weather History Graph

Daily Weather History Graph

Search for Another Location

Airport or City:

Trip Planner

Search our weather history database for the weather conditions in past years. The results will help you decide how hot, cold, wet, or windy it might be!

Date:

Astronomy

Sep. 08, 2013 Rise Set
Actual Time 7:06 AM EDT 7:55 PM EDT
Civil Twilight 6:37 AM EDT 8:24 PM EDT
Nautical Twilight 6:03 AM EDT 8:57 PM EDT
Astronomical Twilight 5:28 AM EDT 9:33 PM EDT
Moon 10:28 AM EDT (9/8) 9:24 PM EDT (9/8)
Length of Visible Light 13h 46m
Length of Day
12h 49m
Waxing Crescent, 11% of the Moon is Illuminated
Sep 8
Waxing Crescent
Sep 12
First Quarter
Sep 19
Full
Sep 26
Last Quarter
Oct 4
New

Hourly Weather History & Observations

Time (EDT) Temp. Dew Point Humidity Pressure Visibility Wind Dir Wind Speed Gust Speed Precip Events Conditions
12:53 AM 70.0 °F 64.9 °F 84% 29.92 in 9.0 mi WNW 8.1 mph - N/A   Partly Cloudy
1:20 AM 69.8 °F 64.4 °F 83% 29.95 in 9.0 mi WNW 9.2 mph - N/A   Mostly Cloudy
1:42 AM 69.8 °F 64.4 °F 83% 29.95 in 9.0 mi NW 9.2 mph - N/A   Overcast
1:53 AM 70.0 °F 64.9 °F 84% 29.94 in 8.0 mi NW 9.2 mph - N/A   Overcast
2:37 AM 69.8 °F 66.2 °F 88% 29.95 in 7.0 mi North 8.1 mph - N/A   Overcast
2:53 AM 70.0 °F 66.0 °F 87% 29.93 in 6.0 mi North 6.9 mph - N/A   Overcast
3:06 AM 69.8 °F 66.2 °F 88% 29.95 in 7.0 mi North 8.1 mph - N/A   Overcast
3:31 AM 69.8 °F 66.2 °F 88% 29.95 in 7.0 mi North 9.2 mph - N/A   Overcast
3:53 AM 70.0 °F 64.9 °F 84% 29.94 in 9.0 mi North 9.2 mph - N/A   Overcast
4:53 AM 68.0 °F 63.0 °F 84% 29.96 in 10.0 mi NNE 12.7 mph - N/A   Overcast
5:03 AM 68.0 °F 62.6 °F 83% 29.98 in 10.0 mi NNE 12.7 mph - N/A   Overcast
5:53 AM 66.9 °F 61.0 °F 81% 29.99 in 10.0 mi North 12.7 mph 20.7 mph N/A   Overcast
6:53 AM 66.0 °F 61.0 °F 84% 30.01 in 10.0 mi NNE 5.8 mph - N/A   Overcast
7:53 AM 66.0 °F 61.0 °F 84% 30.03 in 10.0 mi NNE 8.1 mph - N/A   Overcast
8:53 AM 64.9 °F 60.1 °F 84% 30.05 in 10.0 mi NE 15.0 mph 20.7 mph 0.00 in Rain Light Rain
9:53 AM 64.0 °F 57.9 °F 80% 30.06 in 10.0 mi NNE 15.0 mph - 0.00 in   Overcast
10:24 AM 64.4 °F 55.4 °F 73% 30.08 in 10.0 mi NE 15.0 mph - N/A   Mostly Cloudy
10:53 AM 66.0 °F 55.0 °F 68% 30.08 in 10.0 mi ENE 11.5 mph - N/A   Mostly Cloudy
11:40 AM 69.8 °F 53.6 °F 56% 30.10 in 10.0 mi ENE 12.7 mph 18.4 mph N/A   Mostly Cloudy
11:53 AM 69.1 °F 54.0 °F 58% 30.09 in 10.0 mi NE 11.5 mph - N/A   Mostly Cloudy
12:53 PM 70.0 °F 51.1 °F 51% 30.09 in 10.0 mi NNE 15.0 mph 19.6 mph N/A   Mostly Cloudy
1:53 PM 70.0 °F 50.0 °F 49% 30.09 in 10.0 mi NE 9.2 mph - N/A   Mostly Cloudy
2:53 PM 71.1 °F 50.0 °F 47% 30.09 in 10.0 mi NE 11.5 mph - N/A   Mostly Cloudy
3:53 PM 71.1 °F 48.9 °F 45% 30.06 in 10.0 mi NNE 8.1 mph - N/A   Mostly Cloudy
4:53 PM 70.0 °F 48.0 °F 46% 30.06 in 10.0 mi NE 6.9 mph - N/A   Overcast
5:53 PM 69.1 °F 46.9 °F 45% 30.08 in 10.0 mi NNE 8.1 mph - N/A   Overcast
6:53 PM 66.9 °F 46.9 °F 49% 30.06 in 10.0 mi ENE 9.2 mph - N/A   Overcast
7:53 PM 62.1 °F 46.9 °F 58% 30.07 in 10.0 mi ENE 6.9 mph - N/A   Mostly Cloudy
8:53 PM 59.0 °F 46.9 °F 64% 30.08 in 10.0 mi East 5.8 mph - N/A   Mostly Cloudy
9:53 PM 59.0 °F 48.0 °F 67% 30.07 in 10.0 mi East 6.9 mph - N/A   Mostly Cloudy
10:53 PM 57.9 °F 48.0 °F 70% 30.07 in 10.0 mi East 5.8 mph - N/A   Scattered Clouds
11:53 PM 55.9 °F 48.9 °F 77% 30.07 in 10.0 mi East 5.8 mph - N/A   Partly Cloudy